College Station, TX

3:12 PM CDT on May 23, 2017 (GMT -0500)
Easterwood

Weather History for KCLL - January, 2012

Change the Weather History Date:

Sunday, January 8, 2012

  Actual Average Record
Temperature  
Mean Temperature 64 °F 51 °F  
Max Temperature 72 °F 60 °F 82 °F (1923)
Min Temperature 55 °F 41 °F 15 °F (1976)
Degree Days  
Heating Degree Days 1 15  
Month to date heating degree days 69 120  
Since 1 July heating degree days 650 756  
Cooling Degree Days 0 0  
Month to date cooling degree days 0 0  
Year to date cooling degree days 0 0  
Growing Degree Days 14 (Base 50)    
Moisture  
Dew Point 54 °F    
Average Humidity 82    
Maximum Humidity 97    
Minimum Humidity 66    
Precipitation  
Precipitation 0.07 in 0.11 in 1.10 in (2013)
Month to date precipitation 0.07 0.82  
Year to date precipitation 0.07 0.82  
Sea Level Pressure  
Sea Level Pressure 30.02 in    
Wind  
Wind Speed 6 mph (NE)    
Max Wind Speed 13 mph    
Max Gust Speed 16 mph    
Visibility 9 miles    
Events Rain    
T = Trace of Precipitation, MM = Missing Value Source: NWS Daily Summary

Daily Weather History Graph

Daily Weather History Graph

Search for Another Location

Airport or City:

Trip Planner

Search our weather history database for the weather conditions in past years. The results will help you decide how hot, cold, wet, or windy it might be!

Date:

Astronomy

Jan. 08, 2012 Rise Set
Actual Time 7:23 AM CST 5:40 PM CST
Civil Twilight 6:57 AM CST 6:06 PM CST
Nautical Twilight 6:27 AM CST 6:36 PM CST
Astronomical Twilight 5:58 AM CST 7:05 PM CST
Moon 5:23 PM CST (1/8) 6:43 AM CST (1/8)
Length of Visible Light 11h 09m
Length of Day
10h 16m
Full, 100% of the Moon is Illuminated
Jan 8
Full
Jan 9
Full
Jan 16
Last Quarter
Jan 23
New
Jan 30
First Quarter

Hourly Weather History & Observations

Time (CST) Temp. Dew Point Humidity Pressure Visibility Wind Dir Wind Speed Gust Speed Precip Events Conditions
12:53 AM 55.9 °F 44.1 °F 64% 30.04 in 10.0 mi East 3.5 mph - N/A   Overcast
1:53 AM 55.9 °F 44.1 °F 64% 30.02 in 10.0 mi East 5.8 mph - N/A   Overcast
2:53 AM 55.9 °F 45.0 °F 67% 30.01 in 10.0 mi East 6.9 mph - N/A   Overcast
3:53 AM 55.9 °F 45.0 °F 67% 30.01 in 10.0 mi NNE 5.8 mph - N/A   Overcast
4:53 AM 55.9 °F 45.0 °F 67% 30.00 in 10.0 mi NE 6.9 mph - N/A   Overcast
5:34 AM 55.4 °F 44.6 °F 67% 30.01 in 10.0 mi ENE 6.9 mph - N/A   Overcast
5:53 AM 55.9 °F 45.0 °F 67% 30.01 in 10.0 mi ENE 4.6 mph - N/A   Overcast
6:53 AM 55.4 °F 46.4 °F 72% 30.02 in 10.0 mi ENE 4.6 mph - N/A   Overcast
7:19 AM 55.4 °F 46.4 °F 72% 30.03 in 10.0 mi ENE 5.8 mph - N/A   Overcast
7:53 AM 57.2 °F 46.4 °F 67% 30.04 in 10.0 mi NE 3.5 mph - N/A   Overcast
8:53 AM 57.0 °F 48.0 °F 72% 30.06 in 10.0 mi NE 3.5 mph - 0.00 in   Overcast
9:53 AM 57.9 °F 50.0 °F 75% 30.09 in 10.0 mi Calm Calm - 0.00 in   Overcast
10:20 AM 60.8 °F 50.0 °F 68% 30.09 in 10.0 mi East 5.8 mph - N/A   Overcast
10:27 AM 60.8 °F 50.0 °F 68% 30.08 in 10.0 mi ENE 5.8 mph - N/A   Overcast
10:53 AM 62.1 °F 52.0 °F 70% 30.08 in 10.0 mi ENE 3.5 mph - N/A   Overcast
11:31 AM 62.6 °F 53.6 °F 72% 30.07 in 10.0 mi Calm Calm - N/A   Overcast
11:49 AM 62.6 °F 53.6 °F 72% 30.06 in 10.0 mi NE 4.6 mph - N/A   Overcast
11:53 AM 64.0 °F 53.1 °F 67% 30.05 in 10.0 mi NE 4.6 mph - N/A   Overcast
12:53 PM 64.9 °F 55.9 °F 73% 30.03 in 10.0 mi North 3.5 mph - N/A   Overcast
1:02 PM 66.2 °F 55.4 °F 68% 30.03 in 10.0 mi NE 4.6 mph - N/A   Overcast
1:53 PM 69.1 °F 57.0 °F 65% 30.00 in 10.0 mi NNE 4.6 mph - N/A   Mostly Cloudy
2:00 PM 69.8 °F 57.2 °F 64% 30.00 in 10.0 mi NNE 4.6 mph - N/A   Mostly Cloudy
2:53 PM 72.0 °F 59.0 °F 64% 29.97 in 10.0 mi NNE 5.8 mph - N/A   Clear
3:53 PM 69.1 °F 59.0 °F 70% 29.96 in 10.0 mi North 6.9 mph - N/A   Overcast
4:53 PM 66.0 °F 62.1 °F 87% 29.97 in 7.0 mi NE 5.8 mph - 0.07 in   Mostly Cloudy
5:53 PM 64.4 °F 62.6 °F 94% 29.99 in 9.0 mi NE 6.9 mph - N/A   Overcast
6:53 PM 64.0 °F 61.0 °F 90% 30.00 in 8.0 mi NNE 6.9 mph - N/A   Mostly Cloudy
7:44 PM 62.6 °F 60.8 °F 94% 30.01 in 7.0 mi NNE 8.1 mph - N/A   Mostly Cloudy
7:53 PM 62.1 °F 59.0 °F 90% 30.01 in 7.0 mi North 6.9 mph - N/A   Mostly Cloudy
8:26 PM 62.6 °F 59.0 °F 88% 30.03 in 7.0 mi North 6.9 mph - 0.00 in   Overcast
8:38 PM 60.8 °F 59.0 °F 94% 30.02 in 7.0 mi NE 9.2 mph - 0.00 in   Overcast
8:53 PM 61.0 °F 59.0 °F 93% 30.01 in 7.0 mi NNE 10.4 mph - 0.00 in   Mostly Cloudy
9:09 PM 60.8 °F 59.0 °F 94% 30.01 in 7.0 mi NE 8.1 mph - N/A   Mostly Cloudy
9:18 PM 60.8 °F 57.2 °F 88% 30.01 in 7.0 mi NE 9.2 mph - N/A   Mostly Cloudy
9:39 PM 60.8 °F 57.2 °F 88% 30.02 in 8.0 mi NE 10.4 mph - N/A   Mostly Cloudy
9:48 PM 60.8 °F 57.2 °F 88% 30.02 in 9.0 mi NE 12.7 mph - N/A   Mostly Cloudy
9:53 PM 60.1 °F 57.0 °F 90% 30.01 in 9.0 mi NE 13.8 mph - N/A   Mostly Cloudy
10:53 PM 60.1 °F 57.0 °F 90% 30.01 in 9.0 mi ENE 10.4 mph - N/A   Overcast
11:53 PM 60.1 °F 57.0 °F 90% 29.99 in 8.0 mi NE 5.8 mph - 0.00 in Rain Light Rain